Location: Drocourt
(49.0571°N, 1.7669°E)
Time: 10:39:23
(UTC+00:00)

Transit 4A - Pass Details

Date: 20 April 2024
Orbit: 871 x 971 km, 66.8° (Epoch: 24 May)

Event Time Altitude Azimuth Distance (km) Brightness Sun altitude
Rises 16:56:01 0° 304° (NW) 3,490 11.8 18.0°
Reaches altitude 10° 17:00:01 10° 330° (NNW) 2,538 10.7 17.4°
Maximum altitude 17:02:49 13° 359° (N) 2,291 10.0 16.9°
Drops below altitude 10° 17:05:37 10° 28° (NNE) 2,530 10.0 16.5°
Sets 17:09:35 0° 55° (NE) 3,469 10.4 15.8°
